Voltar ao catálogo

USA 522

AtivoMilitarLEO
NORAD 63597·PAYLOAD·🇺🇸 United States

Lançado Apr 16, 2025 de Vandenberg Space Force Base

Loading…

Próximas Passagens (próximas 24 horas)

TLE

ObsoletoSource: Mike McCants

Época: Nov 13, 2025, 04:44 UTC

1 63597U 25077B   25317.19739246 0.00000000  00000-0  00000-0 0    03
2 63597  63.3855  42.8714 0020000 291.6239  68.3761 13.39285860    08

Acompanhe USA 522 em tempo real com AllMySat

Download on the App Store